{"data":{"norad_id":56483,"intl_designator":"2023-064AM","name":"STARLINK-5868","alt_names":[],"object_type":"PAYLOAD","status":"ACTIVE","operator":null,"country":"US","launch_date":"2023-05-10","launch_site_code":"AFWTR","launch_vehicle":null,"mission":null,"orbit_class":"UNKNOWN","rcs_meters":null,"size_class":null,"mass_kg":null,"dimensions":null,"purposes":["comms"],"wikipedia_slug":null,"has_3d_model":false,"image_url":null,"decayed_at":null,"tle_current":{"epoch":"2026-09-20T22:00:03.000096Z","epoch_age_seconds":76006,"freshness":"FRESH","line1":"1 56483U 23064AM  26263.91670139 -.00004213  00000+0 -28648-3 0  9998","line2":"2 56483  70.0017 352.0635 0002839 308.2937 149.2712 15.05387948  5776","mean_motion":15.05387948,"eccentricity":0.0002839,"inclination_deg":70.0017,"raan_deg":352.0635,"arg_perigee_deg":308.2937,"mean_anomaly_deg":149.2712,"bstar":-0.00028648,"rev_number":577,"period_min":95.656405507506,"perigee_km":548.34810162316,"apogee_km":552.28207671939,"semimajor_km":6928.4520891713,"source":"CELESTRAK","updated_at":"2026-09-21T09:00:33.448260Z"}}}